Temperature
24 25 25 26 26 25 24 22 22 22 22 22 21 21 22 22 21 21 20 20 20 20 20 21 20 20 20 20 19 19 19 18 18 18 17 17 17 17 16 16 16 16 15 15
24 25 25 25 25 25 25 24 23 22 22 21 21 22 21 21 21 20 20 20 20 20 20 20 20 19 19 19 19 19 19 18 18 17 17 17 17 16 16 16 16 15 15 15
22 24 24 23 24 24 24 23 23 22 21 21 20 20 20 20 20 20 19 19 19 19 19 19 19 19 19 19 19 18 18 18 17 17 17 17 16 16 16 16 15 15 15 15
20 23 23 22 23 24 23 23 22 22 21 21 20 20 21 21 21 20 20 20 19 20 19 19 19 19 19 19 18 18 18 17 17 17 16 16 16 16 16 15 15 15 15 15
19 20 22 23 24 24 22 21 22 21 21 20 20 20 19 20 21 20 20 20 20 20 19 19 19 18 18 18 18 18 18 17 17 16 16 16 16 16 15 15 15 15 14 14
19 21 21 22 23 24 22 20 21 21 20 20 19 18 18 19 20 20 20 20 19 19 19 19 18 18 18 18 17 17 17 17 16 16 16 16 16 15 15 15 14 14 14 14
19 19 20 21 23 23 21 20 21 21 20 20 18 18 19 19 19 19 19 19 19 18 18 18 18 17 17 17 17 17 17 16 16 16 16 15 15 15 15 14 14 14 14 13
17 19 19 21 21 20 19 21 21 21 21 20 19 19 19 19 18 18 18 18 18 18 17 17 17 17 17 16 16 16 16 16 15 15 15 15 15 14 14 14 14 13 13 13
17 17 19 21 21 21 21 21 21 20 20 20 19 18 18 18 18 18 18 18 17 17 17 17 16 16 16 16 16 16 15 15 15 15 14 14 14 14 14 14 13 13 13 13
16 17 19 20 21 21 21 21 21 20 20 20 19 18 18 18 17 17 17 17 17 17 16 16 16 16 16 15 15 15 15 15 14 14 14 14 14 14 13 13 13 13 13 12
16 17 18 19 20 20 21 20 20 20 20 19 19 18 18 17 17 17 17 16 16 16 16 16 15 15 15 15 15 14 14 14 14 14 14 14 13 13 13 13 13 13 13 12
16 17 16 18 20 20 20 20 19 19 19 18 18 18 18 17 17 16 16 16 16 15 15 15 15 15 14 14 14 14 14 13 13 13 13 13 13 13 13 13 12 12 12 12
19 19 19 19 19 19 20 19 19 19 18 18 18 17 17 17 16 16 16 16 15 15 15 14 14 14 14 14 14 13 13 13 13 13 13 13 13 12 12 12 12 12 12 12
19 19 19 19 19 19 19 19 19 18 18 18 17 17 17 16 16 16 16 15 15 15 15 14 14 14 13 13 13 13 13 13 13 12 13 12 12 12 12 12 12 12 11 11
19 19 18 18 18 18 18 18 18 17 17 17 17 17 16 16 16 15 15 15 15 14 14 14 14 13 13 13 13 13 12 12 12 12 12 12 12 12 12 12 11 11 11 11
18 18 18 18 18 17 18 17 17 17 17 17 16 16 16 15 15 15 15 15 14 14 14 14 13 13 13 13 12 12 12 12 12 12 12 12 12 12 12 11 11 11 11 11
18 17 18 17 17 17 17 17 17 16 16 16 16 16 15 15 15 14 14 14 14 14 13 13 13 13 13 12 12 12 12 12 12 12 12 12 11 11 11 11 11 11 11 10
18 18 18 17 17 17 17 17 16 16 16 16 16 15 15 15 14 14 14 14 13 13 13 13 13 12 12 12 12 12 12 12 12 11 11 11 11 11 11 11 11 11 10 10
17 17 17 17 17 17 16 16 16 16 16 15 15 15 15 14 14 14 14 13 13 13 13 13 12 12 12 12 12 12 12 11 11 11 11 11 11 11 11 11 11 10 10 10
17 17 17 16 16 16 16 16 15 15 15 15 15 15 14 14 14 14 14 13 13 13 13 13 12 12 12 12 11 11 11 11 11 11 11 11 11 11 11 10 10 10 10 9
16 16 16 16 15 15 15 15 15 15 14 14 14 14 14 14 13 13 13 13 13 12 12 12 12 12 12 12 11 11 11 11 11 11 11 11 11 10 10 10 10 9 9 9
16 16 15 15 15 15 15 15 14 14 14 14 14 14 13 13 13 13 13 12 12 12 12 12 12 12 12 11 11 11 11 11 11 11 11 10 10 10 10 9 9 9 9 9
15 15 15 15 14 14 14 14 14 14 14 14 13 13 13 13 13 12 12 12 12 12 12 12 11 11 11 11 11 11 11 11 10 10 10 10 10 10 9 9 9 9 8 8
14 14 14 14 14 14 14 14 14 13 13 13 13 13 13 12 12 12 12 12 12 11 11 11 11 11 11 11 11 11 10 10 10 10 10 10 10 9 9 9 9 8 8 8
14 14 14 14 14 13 13 13 13 13 13 13 13 12 12 12 12 12 12 12 11 11 11 11 11 11 11 11 10 10 10 10 10 10 9 9 9 9 9 9 8 8 8 8
13 13 13 13 13 13 13 13 13 13 13 12 12 12 12 12 12 12 12 11 11 11 11 11 10 10 10 10 10 10 10 9 9 9 9 9 9 9 8 8 8 8 8 7
13 13 13 13 13 13 13 13 12 12 12 12 12 12 12 12 11 11 11 11 11 11 11 10 10 10 10 10 10 10 9 9 9 9 8 8 8 8 8 8 8 8 7 7
Wind_Speed
4 3 1 1 2 1 3 6 6 6 6 7 7 8 6 7 7 7 6 6 6 6 6 5 6 5 5 5 5 6 6 5 4 4 3 3 3 2 2 3 3 3 3 1
2 2 4 3 3 1 1 4 6 6 3 4 5 6 6 7 8 7 5 5 5 5 6 6 5 4 5 5 5 5 6 4 3 4 3 3 3 2 2 2 2 3 2 2
2 3 4 3 2 1 2 2 6 6 5 5 7 7 8 8 8 7 6 6 5 5 5 5 5 6 6 5 5 5 5 4 3 3 4 3 3 3 3 2 2 2 1 1
1 3 1 5 2 6 7 4 2 4 7 8 8 6 5 7 9 7 7 6 5 5 5 4 4 4 4 4 5 5 4 4 3 3 3 2 2 2 2 2 3 2 2 1
4 3 2 3 1 3 5 2 1 5 7 9 10 9 5 3 6 8 7 7 6 6 5 5 4 4 5 4 3 4 4 3 3 4 3 3 2 2 2 2 2 2 2 2
4 3 4 5 4 2 8 1 2 4 8 9 7 5 2 1 5 6 6 6 6 6 5 4 3 4 5 4 3 2 3 4 3 3 3 3 3 2 2 2 2 2 1 1
3 3 4 5 4 3 4 5 3 5 8 7 5 6 6 5 5 5 6 6 6 6 5 3 3 5 5 4 2 2 1 2 1 2 3 3 2 1 1 0 1 1 1 1
3 3 5 5 3 4 5 3 5 6 6 7 7 8 7 7 5 5 6 6 7 6 4 3 4 6 4 2 1 1 2 2 1 1 2 2 2 1 1 1 0 1 0 1
4 5 5 0 5 5 6 6 4 5 6 9 9 7 7 6 5 4 4 5 5 5 4 3 3 5 4 1 1 2 3 2 2 3 2 2 2 2 1 1 1 0 0 0
2 1 1 3 5 5 5 6 6 7 8 9 8 8 7 6 5 4 4 4 4 6 5 4 3 4 4 3 3 3 3 3 2 2 2 1 2 1 1 1 2 1 1 1
2 1 3 4 4 5 6 8 9 8 8 8 9 8 7 6 5 4 4 4 5 5 5 4 3 3 3 3 4 4 3 2 2 1 1 1 1 0 1 2 3 3 3 3
3 4 3 2 1 4 7 8 8 8 7 7 8 8 7 6 5 4 4 5 4 4 3 3 3 2 2 3 4 4 2 1 1 1 1 1 1 1 3 2 1 0 2 3
4 3 3 2 4 5 7 7 8 8 8 7 6 6 7 5 4 4 4 4 4 4 3 3 2 1 1 1 3 3 3 2 1 1 1 1 1 1 1 4 5 3 1 1
3 4 4 3 3 4 6 7 7 7 7 8 6 6 6 5 5 5 4 4 4 4 4 3 3 2 1 1 2 2 2 1 2 2 2 2 2 2 2 1 1 3 3 2
2 3 4 3 4 5 6 7 8 6 5 5 6 6 6 5 5 4 3 4 5 4 3 3 2 1 1 2 2 2 1 1 1 1 1 1 1 1 2 2 2 2 2 3
3 5 6 5 5 4 5 6 6 4 4 5 5 5 5 5 5 4 3 5 5 4 3 3 2 2 1 2 1 1 1 2 1 1 1 1 1 1 2 2 2 2 2 2
4 4 5 5 5 4 3 4 5 5 4 5 5 6 6 5 5 3 3 3 4 4 3 3 3 2 2 2 1 1 1 2 2 1 1 1 1 2 2 2 2 2 3 3
6 7 7 8 7 5 5 5 6 6 5 5 6 6 6 5 5 4 3 3 3 2 1 2 2 2 1 1 1 1 1 1 2 2 2 2 2 2 2 2 2 2 2 2
3 5 6 6 7 7 6 6 6 5 5 5 6 6 5 5 5 4 4 4 3 2 3 2 3 2 2 3 2 2 2 2 2 2 2 2 2 1 2 2 2 2 2 2
4 6 7 6 6 6 6 5 5 5 4 5 5 4 4 4 4 4 4 3 4 4 4 4 3 2 3 3 3 2 2 2 2 2 2 2 2 2 2 2 2 2 2 2
5 6 7 6 5 5 5 5 6 5 4 4 4 4 4 3 3 3 3 2 3 3 3 3 2 2 3 3 3 2 2 2 3 3 2 2 2 2 2 2 2 2 2 2
4 6 7 6 6 4 3 4 5 5 4 3 3 3 3 3 2 2 3 4 4 3 2 2 2 3 3 3 2 2 2 3 3 2 2 2 2 2 2 2 1 1 1 2
4 4 5 5 5 4 3 3 3 4 4 4 4 4 4 4 4 3 3 3 3 4 3 3 4 5 4 2 2 2 2 2 2 2 2 2 2 2 2 2 2 2 2 2
4 4 4 4 4 4 3 2 2 2 3 3 3 4 4 3 2 2 3 4 4 4 3 4 5 4 3 2 1 1 2 2 2 2 2 2 2 2 2 2 2 2 2 2
3 3 3 3 3 2 3 2 2 1 2 1 1 2 2 3 3 2 2 3 3 3 2 3 4 3 2 1 1 2 2 2 2 1 1 2 2 2 2 2 3 3 3 2
2 2 2 2 2 2 2 2 2 1 2 2 1 1 1 1 2 2 1 2 3 3 2 2 2 1 1 1 1 1 1 1 0 1 1 1 1 2 2 2 3 2 2 2
1 1 1 1 0 1 2 2 2 2 2 3 2 1 1 1 1 1 1 1 1 1 1 1 1 1 1 1 1 1 0 0 1 1 1 1 1 2 2 2 2 2 2 2
Wind_Direction
210 219 137 306 284 220 149 166 165 188 186 204 192 182 166 143 131 121 117 124 138 145 145 139 138 143 148 144 142 145 144 155 174 177 162 153 155 154 146 150 157 152 143 156
351 26 60 18 328 233 141 138 142 142 188 213 169 145 131 129 124 120 125 130 128 126 132 135 137 138 138 141 148 146 149 163 171 164 157 157 160 151 141 142 142 140 148 168
275 320 44 344 311 92 74 90 148 168 196 150 122 129 139 143 136 134 136 130 133 136 137 144 150 148 150 156 146 140 148 158 166 171 172 181 173 153 163 162 145 146 158 145
127 55 202 243 211 111 94 60 87 133 149 143 134 128 121 139 143 138 139 144 145 139 134 137 140 142 145 145 146 145 154 166 171 169 175 172 157 170 185 170 164 173 173 170
121 160 244 286 284 147 123 43 50 128 131 127 116 91 66 86 135 148 152 153 150 141 140 134 141 137 130 130 147 154 164 176 182 177 175 168 171 196 186 171 180 190 182 174
129 153 212 249 283 154 109 97 306 127 134 139 120 115 187 166 115 113 113 124 129 128 120 120 140 132 121 129 131 171 188 189 182 175 172 186 200 198 178 168 189 185 175 180
155 185 249 270 288 76 117 208 213 146 141 135 137 161 161 128 100 100 106 116 123 118 121 140 133 113 114 131 160 204 184 165 169 172 180 182 172 140 133 132 202 190 185 221
141 163 248 294 51 127 184 177 142 134 130 124 119 114 117 117 112 103 100 105 113 120 130 132 121 119 118 130 173 124 101 94 95 118 142 124 121 108 112 136 178 239 128 343
175 203 235 306 130 150 139 121 120 120 124 127 120 116 122 126 128 120 112 119 123 127 127 115 117 124 131 148 125 112 94 95 109 97 81 106 130 141 143 145 141 182 171 251
84 358 26 72 95 93 104 109 111 119 123 122 124 128 128 125 123 121 117 124 132 130 127 124 121 128 132 133 125 114 106 103 106 111 95 70 79 115 154 180 178 182 184 219
72 327 54 44 77 96 86 96 101 102 113 125 126 124 131 131 131 128 118 110 119 132 133 130 116 114 123 130 130 126 123 117 111 118 130 95 66 100 188 226 207 202 208 199
207 229 164 212 151 101 103 105 107 107 103 116 127 134 132 135 137 132 123 115 112 114 119 119 109 101 122 140 130 130 127 132 156 167 174 145 124 24 14 2 348 185 187 187
191 189 146 132 86 81 104 113 109 112 119 117 116 125 130 136 139 134 126 123 128 132 134 126 119 129 192 146 132 137 153 171 187 188 185 177 173 159 19 360 6 18 318 188
132 106 91 91 103 89 101 108 105 104 113 120 121 117 120 123 125 128 135 146 137 132 132 137 140 161 198 141 124 138 161 177 175 191 193 188 192 198 188 197 293 319 316 292
159 133 138 125 93 91 106 107 103 106 112 113 123 124 126 135 143 146 151 145 130 124 131 137 142 201 219 153 140 146 173 205 210 211 209 205 199 196 198 201 228 271 310 319
143 122 117 114 113 115 117 120 122 131 130 130 129 139 145 144 140 136 134 139 136 144 162 164 183 216 182 139 138 153 206 224 211 203 222 222 202 208 212 211 220 243 253 257
138 149 149 150 152 153 151 153 151 150 143 140 145 141 130 119 115 119 134 148 154 162 170 175 202 202 160 159 178 216 239 248 244 213 211 225 222 216 214 212 219 234 244 235
173 175 169 165 162 155 151 147 145 146 153 157 141 131 133 141 154 163 160 139 120 108 177 200 189 181 183 192 195 205 229 244 226 217 223 230 221 217 216 214 218 228 242 238
159 158 154 149 148 145 144 145 148 148 147 141 140 148 157 166 171 171 157 144 152 182 236 219 188 177 216 240 237 212 224 233 237 229 217 221 226 226 224 222 225 232 226 218
124 131 131 129 128 131 137 142 140 140 146 147 142 148 161 177 174 168 163 178 204 209 207 197 183 195 231 240 242 226 232 235 236 238 234 220 220 234 238 232 225 225 229 225
112 117 119 120 119 117 125 133 137 144 153 153 156 169 182 188 174 165 163 205 245 224 193 185 189 219 235 240 237 233 238 240 232 220 218 222 225 231 236 236 232 225 228 235
108 117 119 118 115 112 120 131 139 146 148 154 163 163 163 174 180 187 210 217 226 209 189 200 221 234 236 237 228 234 235 234 234 225 219 216 212 214 224 226 221 223 223 220
101 115 122 125 127 129 123 131 145 154 161 169 175 181 185 193 190 186 226 235 212 209 205 216 231 242 243 232 226 237 239 231 224 224 221 212 211 210 211 214 215 219 218 222
94 101 115 123 122 120 135 179 174 173 175 177 184 186 183 186 216 223 207 208 205 204 215 226 233 238 226 219 223 242 235 226 227 238 227 210 208 208 210 214 220 220 217 222
94 100 102 107 123 160 186 185 153 131 128 138 148 169 176 175 186 209 205 197 192 193 224 238 239 230 207 203 227 237 239 241 234 221 212 210 218 212 212 215 218 218 218 219
110 130 145 154 167 181 172 148 141 148 141 142 159 201 171 152 157 170 178 193 193 190 198 221 228 206 187 198 220 229 233 253 231 174 180 195 218 215 214 219 229 230 223 221
112 123 116 100 127 142 131 130 138 155 161 161 181 210 181 160 160 175 174 173 188 193 198 213 200 178 182 189 204 224 232 271 235 209 213 225 221 219 221 227 235 236 233 224
Height
1471 1467 1467 1469 1469 1469 1475 1482 1492 1491 1489 1485 1481 1480 1482 1483 1485 1487 1488 1489 1490 1492 1493 1495 1497 1498 1500 1501 1503 1505 1506 1506 1507 1507 1508 1508 1508 1508 1508 1508 1507 1507 1506 1505
1471 1465 1466 1469 1468 1468 1469 1472 1479 1482 1486 1478 1478 1479 1481 1484 1485 1487 1489 1491 1492 1492 1493 1494 1496 1498 1499 1500 1502 1503 1504 1505 1506 1506 1506 1506 1506 1506 1507 1506 1506 1505 1505 1504
1483 1471 1471 1482 1472 1470 1471 1471 1475 1483 1481 1477 1479 1480 1482 1483 1484 1486 1488 1490 1491 1491 1493 1494 1495 1496 1498 1499 1500 1501 1502 1503 1504 1505 1505 1505 1505 1505 1505 1504 1504 1504 1503 1503
1485 1481 1494 1483 1465 1465 1469 1472 1471 1473 1475 1475 1477 1480 1482 1482 1483 1486 1487 1488 1489 1491 1492 1493 1494 1495 1497 1498 1499 1500 1501 1502 1502 1503 1503 1503 1503 1503 1503 1503 1502 1502 1502 1501
1490 1493 1487 1475 1466 1466 1472 1479 1472 1473 1474 1476 1478 1480 1484 1484 1484 1485 1486 1486 1487 1489 1491 1492 1493 1494 1496 1497 1497 1498 1499 1500 1500 1501 1501 1501 1501 1501 1501 1500 1500 1500 1499 1499
1486 1490 1494 1479 1464 1462 1468 1483 1474 1472 1474 1476 1476 1485 1487 1484 1484 1484 1485 1486 1487 1489 1491 1492 1492 1493 1493 1494 1495 1496 1497 1498 1498 1499 1500 1499 1499 1499 1499 1499 1498 1498 1497 1497
1485 1490 1484 1468 1462 1462 1482 1484 1473 1472 1473 1474 1475 1479 1482 1482 1483 1483 1484 1486 1487 1488 1490 1491 1491 1492 1492 1493 1494 1495 1496 1496 1497 1498 1498 1498 1498 1498 1497 1497 1496 1495 1495 1495
1485 1491 1488 1464 1462 1469 1473 1469 1470 1471 1472 1473 1475 1477 1479 1480 1482 1483 1483 1485 1486 1487 1488 1489 1490 1491 1491 1492 1493 1494 1495 1495 1495 1496 1497 1496 1496 1496 1496 1495 1494 1492 1492 1493
1479 1480 1468 1463 1463 1465 1466 1468 1469 1470 1472 1473 1475 1477 1479 1481 1482 1483 1484 1484 1486 1487 1488 1489 1489 1490 1490 1492 1493 1493 1493 1494 1493 1494 1494 1494 1493 1493 1493 1492 1492 1491 1490 1490
1473 1470 1466 1465 1464 1465 1466 1467 1469 1470 1471 1473 1475 1477 1479 1481 1482 1483 1483 1484 1485 1486 1487 1488 1489 1490 1490 1490 1491 1492 1492 1492 1492 1492 1492 1492 1492 1492 1492 1491 1490 1489 1488 1488
1473 1470 1467 1466 1466 1467 1468 1468 1469 1471 1472 1474 1476 1478 1479 1481 1482 1483 1484 1484 1485 1486 1486 1487 1488 1489 1489 1490 1490 1491 1491 1491 1491 1491 1491 1491 1491 1490 1490 1489 1489 1488 1487 1486
1474 1469 1468 1468 1468 1468 1468 1469 1470 1472 1474 1475 1476 1478 1480 1481 1482 1483 1484 1485 1485 1485 1486 1487 1487 1488 1488 1488 1489 1489 1489 1489 1489 1489 1489 1489 1489 1489 1488 1488 1487 1486 1486 1485
1466 1466 1466 1467 1468 1469 1469 1470 1472 1473 1474 1476 1478 1479 1480 1481 1482 1484 1484 1485 1485 1486 1486 1487 1487 1487 1487 1487 1487 1488 1488 1488 1488 1487 1487 1487 1487 1487 1486 1486 1485 1484 1484 1483
1466 1466 1467 1468 1469 1470 1470 1471 1473 1474 1475 1476 1478 1479 1480 1481 1482 1483 1484 1484 1485 1485 1486 1486 1486 1486 1486 1487 1487 1487 1487 1486 1486 1486 1486 1485 1485 1485 1484 1484 1483 1482 1482 1482
1465 1466 1466 1468 1468 1469 1471 1472 1473 1474 1476 1477 1478 1479 1480 1481 1482 1483 1484 1485 1484 1485 1485 1485 1485 1485 1486 1486 1485 1485 1485 1485 1485 1485 1484 1484 1483 1483 1483 1482 1482 1481 1480 1480
1463 1465 1465 1467 1468 1469 1470 1471 1472 1474 1475 1477 1477 1478 1479 1480 1481 1482 1483 1484 1484 1483 1484 1483 1483 1484 1484 1484 1484 1484 1484 1483 1483 1483 1482 1482 1481 1481 1481 1480 1480 1479 1478 1477
1461 1463 1464 1465 1467 1468 1470 1471 1472 1473 1475 1476 1477 1478 1479 1479 1480 1481 1482 1482 1483 1482 1482 1482 1482 1482 1482 1482 1482 1482 1482 1481 1481 1481 1480 1480 1479 1479 1479 1478 1477 1476 1476 1475
1459 1459 1460 1462 1464 1466 1468 1470 1471 1473 1474 1475 1476 1477 1478 1478 1479 1480 1480 1480 1480 1481 1481 1481 1481 1481 1481 1481 1481 1480 1480 1479 1479 1478 1478 1477 1477 1477 1476 1476 1475 1474 1473 1472
1456 1458 1459 1460 1462 1464 1466 1468 1470 1471 1472 1473 1474 1475 1476 1477 1477 1478 1478 1478 1478 1478 1478 1478 1479 1479 1479 1479 1479 1478 1478 1477 1476 1475 1475 1475 1474 1474 1474 1473 1472 1471 1470 1469
1454 1456 1458 1459 1461 1463 1465 1466 1468 1469 1470 1472 1472 1473 1474 1475 1475 1475 1475 1475 1475 1476 1476 1476 1476 1476 1476 1476 1476 1476 1475 1475 1474 1473 1473 1472 1471 1471 1470 1470 1469 1468 1467 1466
1453 1454 1456 1457 1459 1461 1463 1465 1466 1467 1469 1470 1471 1471 1472 1472 1473 1473 1473 1473 1473 1474 1474 1474 1474 1474 1474 1474 1474 1474 1473 1472 1472 1471 1470 1469 1468 1468 1467 1466 1465 1465 1463 1463
1452 1453 1455 1456 1458 1460 1462 1463 1465 1466 1467 1468 1469 1469 1470 1470 1471 1471 1471 1471 1471 1471 1471 1472 1471 1471 1471 1472 1471 1471 1470 1470 1469 1468 1467 1466 1465 1464 1463 1463 1462 1461 1460 1459
1452 1453 1454 1456 1457 1459 1461 1462 1463 1464 1465 1465 1466 1467 1467 1468 1468 1468 1468 1469 1469 1469 1469 1469 1469 1469 1469 1469 1468 1468 1467 1466 1466 1465 1464 1463 1462 1461 1460 1459 1458 1457 1456 1455
1452 1454 1455 1456 1457 1458 1459 1460 1462 1462 1463 1463 1464 1465 1465 1466 1466 1466 1466 1466 1466 1466 1466 1466 1466 1466 1466 1466 1465 1464 1464 1463 1463 1462 1460 1459 1458 1457 1456 1455 1454 1453 1452 1451
1453 1454 1455 1456 1457 1457 1458 1459 1460 1460 1461 1461 1462 1463 1463 1464 1464 1464 1464 1464 1464 1464 1463 1463 1463 1463 1463 1462 1462 1461 1461 1460 1459 1458 1457 1456 1454 1453 1452 1451 1450 1449 1448 1447
1453 1454 1454 1455 1456 1456 1457 1458 1458 1458 1459 1460 1460 1461 1461 1462 1462 1462 1462 1462 1461 1461 1461 1460 1460 1460 1460 1459 1459 1458 1457 1457 1456 1455 1454 1453 1452 1450 1449 1448 1447 1446 1445 1443
1453 1453 1454 1454 1455 1456 1456 1456 1457 1457 1458 1458 1458 1459 1459 1460 1460 1460 1460 1460 1459 1458 1458 1458 1458 1458 1457 1457 1456 1455 1454 1453 1452 1451 1450 1450 1449 1447 1446 1445 1444 1442 1441 1440